Header for Extended Forecast Station List Page

Search by: ID | Name | Date | Parm | Value | Avg | % Avg
Sort by: ID | Name | Date | Parm | Value | Avg | % Avg

Enter search or view all records.

Click on id for station plot
#IDNameDateParmValueAvg% Avg
0LEOI1KOOTENAI-AT LEONIA02-12-2018DISCHARGE (KAF)41283378122
1FCFM8NF FLATHEAD-NEAR COLUMBIA FALLS02-12-2018DISCHARGE (KAF)13161041126
2WGCM8MF FLATHEAD-NEAR WEST GLACIER02-12-2018DISCHARGE (KAF)12591005125
3CFMM8FLATHEAD-AT COLUMBIA FALLS02-12-2018DISCHARGE (KAF)38192938130
4DLGM8CLARK FORK-AT DEER LODGE02-12-2018DISCHARGE (KAF)707890
5DRMM8CLARK FORK-NR DRUMMOND02-12-2018DISCHARGE (KAF)265MM
6RCCM8ROCK CREEK-NEAR CLINTON02-12-2018DISCHARGE (KAF)239168142
7BONM8BLACKFOOT-NEAR BONNER02-12-2018DISCHARGE (KAF)992570174
8ABOM8CLARK FORK-ABOVE MISSOULA02-12-2018DISCHARGE (KAF)15821047151
9BITM8BITTERROOT-NEAR MISSOULA02-12-2018DISCHARGE (KAF)1053838126
10BELM8CLARK FORK-BELOW MISSOULA02-12-2018DISCHARGE (KAF)26351904138
11STRM8ST. REGIS-NEAR ST. REGIS02-12-2018DISCHARGE (KAF)278225124
12SRGM8CLARK FORK-AT ST REGIS02-12-2018DISCHARGE (KAF)33822608130
13PRTI1PRIEST-NEAR PRIEST RIVER02-12-2018DISCHARGE (KAF)756659115
14SPOW1SPOKANE-AT SPOKANE02-12-2018DISCHARGE (KAF)3229MM
15SATI1ST MARIES-NEAR SANTA02-12-2018DISCHARGE (KAF)173150115
16CIBW1COLUMBIA-AT INTL BOUNDARY02-12-2018DISCHARGE (KAF)24923MM
17LAUW1KETTLE-AT LAURIER02-12-2018DISCHARGE (KAF)1308132499
18TONW1OKANOGAN-NEAR TONASKET02-12-2018DISCHARGE (KAF)11721033113
19PATW1METHOW-NEAR PATEROS02-12-2018DISCHARGE (KAF)685568121
20ARDW1ENTIAT-NEAR ARDENVOIR02-12-2018DISCHARGE (KAF)144122119
21PESW1WENATCHEE-AT PESHASTIN02-12-2018DISCHARGE (KAF)1111984113
22EASW1YAKIMA-AT EASTON02-12-2018DISCHARGE (KAF)122100122
23TNAW1TEANAWAY-BELOW FORKS02-12-2018DISCHARGE (KAF)156131119
24UMTW1YAKIMA-AT UMTANUM02-12-2018DISCHARGE (KAF)682606113
25CLFW1NACHES-NEAR CLIFFDEL02-12-2018DISCHARGE (KAF)351301117
26NACW1NACHES-NEAR NACHES02-12-2018DISCHARGE (KAF)543380143
27PARW1YAKIMA-NEAR PARKER02-12-2018DISCHARGE (KAF)779650120
28KIOW1YAKIMA-AT KIONA02-12-2018DISCHARGE (KAF)10271024100
29CHEI1FALL RIVER-NEAR CHESTER02-12-2018DISCHARGE (KAF)313263119
30ANTI1HENRYS FORK-AT ST. ANTHONY02-12-2018DISCHARGE (KAF)655577113
31TEAI1TETON-NEAR ST. ANTHONY02-12-2018DISCHARGE (KAF)264227116
32REXI1HENRYS FORK-AT REXBURG02-12-2018DISCHARGE (KAF)745670111
33JKSW4SNAKE-NEAR JACKSON02-12-2018DISCHARGE (KAF)1171838140
34ALPW4SNAKE-NEAR ALPINE02-12-2018DISCHARGE (KAF)14971114134
35HEII1SNAKE-NEAR HEISE02-12-2018DISCHARGE (KAF)27671725160
36SIFI1SNAKE-AB EAGLE ROCK NR IDAHO FALLS02-12-2018DISCHARGE (KAF)28691773162
37SHYI1SNAKE-NEAR SHELLEY02-12-2018DISCHARGE (KAF)27651784155
38SNAI1SNAKE-AT BLACKFOOT02-12-2018DISCHARGE (KAF)24981548161
39BFTI1SNAKE-NEAR BLACKFOOT02-12-2018DISCHARGE (KAF)24811539161
40PIHI1PORTNEUF-AT POCATELLO02-12-2018DISCHARGE (KAF)7610275
41MILI1SNAKE-AT MILNER02-12-2018DISCHARGE (KAF)990672147
42HOTI1BRUNEAU-NEAR HOT SPRINGS02-12-2018DISCHARGE (KAF)10315766
43SWAI1SNAKE-BELOW SWAN FALLS02-12-2018DISCHARGE (KAF)28052694104
44HWRI1BIG LOST-AT HOWELL RANCH NEAR CHILLY02-12-2018DISCHARGE (KAF)10084120
45HALI1BIG WOOD-AT HAILEY02-12-2018DISCHARGE (KAF)167144116
46BIGI1BOISE-AT GLENWOOD BRIDGE02-12-2018DISCHARGE (KAF)31033393
47PARI1BOISE-NEAR PARMA02-12-2018DISCHARGE (KAF)35441086
48VALO3MALHEUR-NEAR VALE02-12-2018DISCHARGE (KAF)466473
49EMMI1PAYETTE-NEAR EMMETT02-12-2018DISCHARGE (KAF)967104193
50WSRI1WEISER-NEAR WEISER02-12-2018DISCHARGE (KAF)32643275
51WEII1SNAKE-AT WEISER02-12-2018DISCHARGE (KAF)4752528290
52WHBI1SALMON-AT WHITEBIRD02-12-2018DISCHARGE (KAF)43123917110
53TRYO3GRANDE RONDE-TROY02-12-2018DISCHARGE (KAF)11891188100
54ANAW1SNAKE-NEAR ANATONE02-12-2018DISCHARGE (KAF)104301173289
55ORFI1CLEARWATER-AT OROFINO02-12-2018DISCHARGE (KAF)44633807117
56SPDI1CLEARWATER-AT SPALDING02-12-2018DISCHARGE (KAF)69516013116
57TCHW1WALLA WALLA-NEAR TOUCHET02-12-2018DISCHARGE (KAF)244200122
58GIBO3UMATILLA-NEAR GIBBON02-12-2018DISCHARGE (KAF)9184108
59PDTO3UMATILLA-AT PENDLETON02-12-2018DISCHARGE (KAF)213192111
60MYKO3MCKAY CREEK-NEAR PILOT ROCK02-12-2018DISCHARGE (KAF)4537120
61UMAO3UMATILLA-NEAR UMATILLA02-12-2018DISCHARGE (KAF)187156120
62MONO3NF JOHN DAY-AT MONUMENT02-12-2018DISCHARGE (KAF)50962082
63SERO3JOHN DAY-AT SERVICE CK02-12-2018DISCHARGE (KAF)66289774
64MODO3DESCHUTES-AT MOODY NR BIGGS02-12-2018DISCHARGE (KAF)1472155195
65PITW1KLICKITAT-NEAR PITT02-12-2018DISCHARGE (KAF)48553092
66HODO3HOOD-NEAR TUCKER BRIDGE02-12-2018DISCHARGE (KAF)26628095
67UNDW1WHITE SALMON-NEAR UNDERWOOD02-12-2018DISCHARGE (KAF)357357100
68LYDM8KOOTENAI-LIBBY DAM02-12-2018INFLOW (KAF)33313205104
69HHWM8SF FLATHEAD-HUNGRY HORSE DAM02-12-2018INFLOW (KAF)17461366128
70KERM8FLATHEAD-KERR DAM02-12-2018INFLOW (KAF)45013733121
71NOXM8CLARK FORK-NOXON RAPIDS DAM02-12-2018INFLOW (KAF)77716928112
72CABI1CLARK FORK-CABINET GORGE DAM02-12-2018INFLOW (KAF)86027268118
73ALFW1PEND OREILLE-ALBENI FALLS DAM02-12-2018INFLOW (KAF)99978798114
74COEI1COEUR D ALENE-COEUR D ALENE LAKE02-12-2018INFLOW (KAF)31812774115
75LLKW1SPOKANE-AT LONGLAKE02-12-2018INFLOW (KAF)35663327107
76GCDW1COLUMBIA-GRAND COULEE DAM02-12-2018INFLOW (KAF)2991328033107
77CHJW1COLUMBIA-CHIEF JOSEPH DAM02-12-2018INFLOW (KAF)3019527019112
78WELW1COLUMBIA-WELLS DAM02-12-2018INFLOW (KAF)3202428669112
79CHDW1CHELAN-LAKE CHELAN DAM02-12-2018INFLOW (KAF)693629110
80RRHW1COLUMBIA-ROCKY REACH DAM02-12-2018INFLOW (KAF)3252229102112
81WANW1COLUMBIA-WANAPUM DAM02-12-2018INFLOW (KAF)3370029913113
82PRWW1COLUMBIA-PRIEST RAPIDS DAM02-12-2018INFLOW (KAF)3369330412111
83KEDW1YAKIMA-KEECHELUS LAKE02-12-2018INFLOW (KAF)117101116
84KADW1KACHESS-KACHESS DAM02-12-2018INFLOW (KAF)10196105
85CLUW1CLE ELUM-CLE ELUM LAKE02-12-2018INFLOW (KAF)310293106
86BUDW1BUMPING-BUMPING LAKE DAM02-12-2018INFLOW (KAF)9786113
87RILW1TIETON-RIMROCK LAKE NEAR RIMROCK02-12-2018INFLOW (KAF)165146113
88IPDI1HENRYS FORK-ISLAND PARK DAM02-12-2018INFLOW (KAF)198171116
89JLKW4SNAKE-JACKSON LAKE AT DAM02-12-2018INFLOW (KAF)634457139
90PLDI1SF SNAKE-PALISADES DAM02-12-2018INFLOW (KAF)22071748126
91RIDI1WILLOW CREEK-RIRIE DAM02-12-2018INFLOW (KAF)274265
92AFRI1SNAKE-AMERICAN FALLS RESERVOIR02-12-2018INFLOW (KAF)30582220138
93MACI1BIG LOST-MACKAY RESERVOIR NEAR MACKAY02-12-2018INFLOW (KAF)8784104
94MAGI1BIG WOOD-MAGIC DAM02-12-2018INFLOW (KAF)15319479
95LWRI1LITTLE WOOD-LITTLE WOOD DAM02-12-2018INFLOW (KAF)436468
96OWYO3OWYHEE-OWYHEE DAM02-12-2018INFLOW (KAF)19036252
97ARAI1SF BOISE-ANDERSON RANCH DAM02-12-2018INFLOW (KAF)35240986
98LUCI1BOISE-LUCKY PEAK DAM02-12-2018INFLOW (KAF)841MM
99WRMO3MALHEUR-WARM SPRINGS DAM02-12-2018INFLOW (KAF)437458
100BERO3MALHEUR-AGENCY VALLEY DAM02-12-2018INFLOW (KAF)305258
101BULO3BULLY CREEK-BULLY CREEK DAM02-12-2018INFLOW (KAF)7983
102CSDI1NF PAYETTE-CASCADE DAM02-12-2018INFLOW (KAF)38641094
103DEDI1DEADWOOD-NEAR LOWMAN02-12-2018INFLOW (KAF)10195106
104BRNI1SNAKE-BROWNLEE DAM02-12-2018INFLOW (KAF)5181570791
105DWRI1NF CLEARWATER-DWORSHAK DAM02-12-2018INFLOW (KAF)29382439120
106LGDW1SNAKE-LOWER GRANITE DAM02-12-2018INFLOW (KAF)173801776298
107LGSW1SNAKE-LITTLE GOOSE DAM02-12-2018INFLOW (KAF)173801779298
108LMNW1SNAKE-LOWER MONUMENTAL DAM02-12-2018INFLOW (KAF)177521803198
109IHDW1SNAKE-ICE HARBOR DAM02-12-2018INFLOW (KAF)177521788199
110MCDW1COLUMBIA-MCNARY DAM02-12-2018INFLOW (KAF)5256050349104
111JDAO3COLUMBIA-JOHN DAY DAM02-12-2018INFLOW (KAF)5467252950103
112TDAO3COLUMBIA-THE DALLES DAM02-12-2018INFLOW (KAF)5513252062106
113BONO3COLUMBIA-BONNEVILLE DAM02-12-2018INFLOW (KAF)5622654527103
114HOPI1PEND OREILLE-PEND OREILLE LAKE NR HOPE02-12-2018LAKE ELEVATION (FT)MMM
115BFEI1KOOTENAI-AT BONNERS FERRY02-12-2018STAGE (FT)MMM
116SJMI1ST JOE-AT ST MARIES02-12-2018STAGE (FT)MMM